| time (UTC) | temp F | wind direction | speed knots | gust knots | rain 1hr in | rain 24hr in | rain mn in | humidity % | barometer mb |
| 20260903041607 | 60 | 164 | 0.0 | 0.9 | 0.00 | 0.00 | 0.00 | 89 | 1017.1 |
| 20260903040051 | 60 | 164 | 0.0 | 0.9 | 0.00 | 0.00 | 0.00 | 89 | 1017.3 |
| 20260903034547 | 60 | 164 | 0.0 | 0.9 | 0.00 | 0.00 | 0.00 | 89 | 1017.8 |
| 20260903033046 | 60 | 164 | 0.0 | 0.9 | 0.00 | 0.00 | 0.00 | 89 | 1018.1 |
| 20260903031544 | 60 | 164 | 0.0 | 0.9 | 0.00 | 0.00 | 0.00 | 89 | 1017.9 |
| 20260903030044 | 60 | 164 | 0.0 | 0.9 | 0.00 | 0.00 | 0.00 | 88 | 1018.1 |
| 20260903024545 | 60 | 164 | 0.0 | 1.7 | 0.00 | 0.00 | 0.00 | 88 | 1018.0 |
| 20260903023044 | 60 | 178 | 0.9 | 2.6 | 0.00 | 0.00 | 0.00 | 87 | 1018.0 |
| 20260903021543 | 60 | 178 | 0.0 | 2.6 | 0.00 | 0.00 | 0.00 | 87 | 1018.2 |
| 20260903020049 | 60 | 181 | 0.0 | 1.7 | 0.00 | 0.00 | 0.00 | 87 | 1018.4 |
| 20260903014602 | 60 | 177 | 0.0 | 1.7 | 0.00 | 0.00 | 0.00 | 87 | 1018.4 |
| 20260903013051 | 60 | 177 | 0.0 | 2.6 | 0.00 | 0.00 | 0.00 | 87 | 1018.4 |
| 20260903011605 | 60 | 163 | 0.0 | 0.9 | 0.00 | 0.00 | 0.00 | 87 | 1018.5 |
| 20260903010057 | 61 | 144 | 0.9 | 3.5 | 0.00 | 0.00 | 0.00 | 87 | 1018.4 |
| 20260903004538 | 61 | 164 | 0.0 | 2.6 | 0.00 | 0.00 | 0.00 | 87 | 1017.9 |
| 20260903003036 | 61 | 162 | 0.9 | 1.7 | 0.00 | 0.00 | 0.00 | 87 | 1017.9 |
| 20260903001546 | 61 | 162 | 0.0 | 4.3 | 0.00 | 0.00 | 0.00 | 87 | 1017.9 |
| 20260903000036 | 61 | 159 | 0.0 | 1.7 | 0.00 | 0.00 | 0.00 | 86 | 1018.4 |
| 20260902234541 | 62 | 155 | 0.0 | 1.7 | 0.00 | 0.00 | 0.00 | 86 | 1018.5 |
| 20260902233037 | 62 | 155 | 0.0 | 0.9 | 0.00 | 0.00 | 0.00 | 85 | 1018.7 |
| 20260902231544 | 62 | 154 | 0.0 | 0.9 | 0.00 | 0.00 | 0.00 | 84 | 1018.8 |
| 20260902230040 | 63 | 155 | 0.0 | 1.7 | 0.00 | 0.00 | 0.00 | 82 | 1019.1 |
| 20260902224537 | 64 | 155 | 0.0 | 2.6 | 0.00 | 0.00 | 0.00 | 80 | 1019.0 |
| 20260902223040 | 64 | 169 | 0.0 | 0.9 | 0.00 | 0.00 | 0.00 | 78 | 1019.3 |
| 20260902221533 | 64 | 169 | 0.0 | 3.5 | 0.00 | 0.00 | 0.00 | 76 | 1019.4 |
| 20260902220036 | 65 | 360 | 0.0 | 2.6 | 0.00 | 0.00 | 0.00 | 75 | 1019.4 |
| 20260902214537 | 66 | 266 | 0.9 | 2.6 | 0.00 | 0.00 | 0.00 | 74 | 1019.3 |
| 20260902213031 | 66 | 54 | 0.0 | 1.7 | 0.00 | 0.00 | 0.00 | 74 | 1019.4 |
| 20260902211532 | 66 | 355 | 0.9 | 2.6 | 0.00 | 0.00 | 0.00 | 74 | 1019.5 |
| 20260902210030 | 66 | 46 | 0.9 | 3.5 | 0.00 | 0.00 | 0.00 | 74 | 1019.3 |
| 20260902204529 | 66 | 229 | 0.0 | 1.7 | 0.00 | 0.00 | 0.00 | 74 | 1019.5 |
| 20260902203029 | 66 | 284 | 0.0 | 3.5 | 0.00 | 0.00 | 0.00 | 74 | 1019.7 |
| 20260902201528 | 66 | 185 | 0.9 | 4.3 | 0.00 | 0.00 | 0.00 | 72 | 1019.8 |
| 20260902200028 | 66 | 174 | 0.0 | 3.5 | 0.00 | 0.00 | 0.00 | 73 | 1020.0 |
| 20260902194542 | 66 | 180 | 0.0 | 4.3 | 0.00 | 0.00 | 0.00 | 73 | 1020.2 |
| 20260902193027 | 66 | 12 | 0.0 | 3.5 | 0.00 | 0.00 | 0.00 | 71 | 1020.4 |
| 20260902191526 | 67 | 127 | 0.9 | 4.3 | 0.00 | 0.00 | 0.00 | 73 | 1020.3 |
| 20260902190025 | 67 | 28 | 0.0 | 5.2 | 0.00 | 0.00 | 0.00 | 73 | 1020.3 |
| 20260902184528 | 66 | 39 | 0.0 | 2.6 | 0.00 | 0.00 | 0.00 | 75 | 1020.3 |
| 20260902183021 | 66 | 179 | 0.9 | 6.1 | 0.00 | 0.00 | 0.00 | 74 | 1020.3 |
| 20260902181519 | 66 | 29 | 0.0 | 3.5 | 0.00 | 0.00 | 0.00 | 75 | 1020.5 |
| 20260902180020 | 66 | 90 | 0.0 | 2.6 | 0.00 | 0.00 | 0.00 | 74 | 1020.5 |
| 20260902174518 | 66 | 156 | 0.0 | 2.6 | 0.00 | 0.00 | 0.00 | 72 | 1020.7 |
| 20260902173024 | 66 | 176 | 0.0 | 2.6 | 0.00 | 0.00 | 0.00 | 71 | 1020.5 |
| 20260902171517 | 66 | 173 | 0.0 | 2.6 | 0.00 | 0.00 | 0.00 | 72 | 1020.5 |
| 20260902170019 | 66 | 176 | 0.0 | 2.6 | 0.00 | 0.00 | 0.00 | 71 | 1020.6 |
| 20260902164615 | 66 | 154 | 1.7 | 4.3 | 0.00 | 0.00 | 0.00 | 73 | 1020.4 |
| 20260902163011 | 66 | 161 | 1.7 | 4.3 | 0.00 | 0.00 | 0.00 | 74 | 1020.7 |
| 20260902161511 | 65 | 146 | 0.9 | 2.6 | 0.00 | 0.00 | 0.00 | 77 | 1020.9 |
| 20260902160010 | 65 | 189 | 0.0 | 3.5 | 0.00 | 0.00 | 0.00 | 80 | 1021.0 |
| 20260902154510 | 66 | 295 | 0.0 | 1.7 | 0.00 | 0.00 | 0.00 | 81 | 1021.1 |
| 20260902153010 | 65 | 295 | 0.9 | 3.5 | 0.00 | 0.00 | 0.00 | 82 | 1021.1 |
| 20260902151507 | 65 | 161 | 1.7 | 4.3 | 0.00 | 0.00 | 0.00 | 82 | 1021.2 |
| 20260902150006 | 66 | 128 | 0.0 | 2.6 | 0.00 | 0.00 | 0.00 | 81 | 1021.2 |
| 20260902144504 | 65 | 135 | 0.0 | 1.7 | 0.00 | 0.00 | 0.00 | 81 | 1020.9 |
| 20260902143109 | 64 | 130 | 0.9 | 5.2 | 0.00 | 0.00 | 0.00 | 85 | 1020.8 |
| 20260902141557 | 64 | 150 | 0.9 | 2.6 | 0.00 | 0.00 | 0.00 | 86 | 1020.9 |
| 20260902140055 | 63 | 202 | 0.0 | 2.6 | 0.00 | 0.00 | 0.00 | 87 | 1020.8 |
| 20260902134558 | 63 | 63 | 0.0 | 2.6 | 0.00 | 0.00 | 0.00 | 87 | 1020.6 |
| 20260902133057 | 63 | 125 | 0.9 | 3.5 | 0.00 | 0.00 | 0.00 | 87 | 1020.7 |
| 20260902131601 | 63 | 17 | 0.0 | 1.7 | 0.00 | 0.00 | 0.00 | 87 | 1020.6 |
| 20260902130052 | 62 | 27 | 0.0 | 3.5 | 0.00 | 0.00 | 0.00 | 87 | 1020.6 |
| 20260902124552 | 62 | 63 | 0.0 | 1.7 | 0.00 | 0.00 | 0.00 | 88 | 1020.8 |
| 20260902123051 | 62 | 63 | 0.0 | 1.7 | 0.00 | 0.00 | 0.00 | 88 | 1020.6 |
| 20260902121550 | 62 | 58 | 0.0 | 2.6 | 0.00 | 0.00 | 0.00 | 89 | 1020.5 |
| 20260902120049 | 61 | 42 | 0.0 | 2.6 | 0.00 | 0.00 | 0.00 | 89 | 1020.7 |
| 20260902114550 | 61 | 40 | 1.7 | 3.5 | 0.00 | 0.00 | 0.00 | 89 | 1020.5 |
| 20260902113051 | 61 | 142 | 0.9 | 3.5 | 0.00 | 0.00 | 0.00 | 89 | 1020.7 |
| 20260902111547 | 61 | 41 | 0.0 | 3.5 | 0.00 | 0.00 | 0.00 | 89 | 1020.5 |
| 20260902110044 | 61 | 161 | 0.0 | 2.6 | 0.00 | 0.00 | 0.00 | 89 | 1020.2 |
| 20260902104604 | 61 | 61 | 0.0 | 3.5 | 0.00 | 0.00 | 0.00 | 90 | 1019.9 |
| 20260902103041 | 61 | 49 | 0.0 | 1.7 | 0.00 | 0.00 | 0.00 | 90 | 1020.0 |
| 20260902101540 | 61 | 50 | 0.0 | 0.9 | 0.00 | 0.00 | 0.00 | 90 | 1020.0 |
| 20260902100056 | 61 | 45 | 0.0 | 2.6 | 0.00 | 0.00 | 0.00 | 90 | 1019.9 |
| 20260902094538 | 61 | 46 | 0.0 | 1.7 | 0.00 | 0.00 | 0.00 | 90 | 1019.7 |
| 20260902093036 | 61 | 46 | 0.0 | 0.0 | 0.00 | 0.00 | 0.00 | 90 | 1019.6 |
| 20260902091536 | 61 | 46 | 0.0 | 0.9 | 0.00 | 0.00 | 0.00 | 90 | 1019.5 |
| 20260902090034 | 61 | 46 | 0.0 | 0.0 | 0.00 | 0.00 | 0.00 | 90 | 1019.6 |
| 20260902084533 | 61 | 46 | 0.0 | 0.0 | 0.00 | 0.00 | 0.00 | 89 | 1019.7 |
| 20260902083032 | 61 | 46 | 0.0 | 0.9 | 0.00 | 0.00 | 0.00 | 89 | 1019.6 |
| 20260902081536 | 61 | 46 | 0.0 | 0.0 | 0.00 | 0.00 | 0.00 | 89 | 1019.6 |
| 20260902080033 | 61 | 46 | 0.0 | 0.9 | 0.00 | 0.00 | 0.00 | 89 | 1019.5 |
| 20260902074528 | 62 | 46 | 0.0 | 0.0 | 0.00 | 0.00 | 0.00 | 89 | 1019.4 |
| 20260902073027 | 62 | 46 | 0.0 | 0.0 | 0.00 | 0.00 | 0.00 | 89 | 1019.4 |
| 20260902071534 | 62 | 46 | 0.0 | 0.0 | 0.00 | 0.00 | 0.00 | 89 | 1019.2 |
| 20260902070030 | 62 | 46 | 0.0 | 0.9 | 0.00 | 0.00 | 0.00 | 89 | 1019.2 |
| 20260902064526 | 62 | 46 | 0.0 | 0.9 | 0.00 | 0.00 | 0.00 | 89 | 1019.2 |
| 20260902063028 | 62 | 46 | 0.0 | 0.9 | 0.00 | 0.00 | 0.00 | 89 | 1019.1 |
| 20260902061523 | 62 | 46 | 0.0 | 0.0 | 0.00 | 0.00 | 0.00 | 89 | 1019.1 |
| 20260902060027 | 62 | 46 | 0.0 | 0.0 | 0.00 | 0.00 | 0.00 | 89 | 1019.4 |
| 20260902054523 | 62 | 46 | 0.0 | 0.9 | 0.00 | 0.00 | 0.00 | 89 | 1019.2 |
| 20260902053019 | 62 | 46 | 0.0 | 0.9 | 0.00 | 0.00 | 0.00 | 89 | 1019.0 |
| 20260902051516 | 62 | 46 | 0.0 | 1.7 | 0.00 | 0.00 | 0.00 | 88 | 1018.8 |
| 20260902050016 | 62 | 46 | 0.0 | 1.7 | 0.00 | 0.00 | 0.00 | 88 | 1018.5 |
| 20260902044531 | 62 | 48 | 0.0 | 0.9 | 0.00 | 0.00 | 0.00 | 88 | 1018.3 |
| 20260902043008 | 62 | 48 | 0.9 | 3.5 | 0.00 | 0.00 | 0.00 | 87 | 1018.2 |